Hourly Weather Duisburg

Today, 14 June, Monday

Time Temperature Precipitation Wind Pressure Humidity
00:00 +15°C° 0 mm 1 mps 765 mmHg 71%
01:00 +14°C° 0 mm 1 mps 765 mmHg 73%
02:00 +14°C° 0 mm 1 mps 764 mmHg 74%
03:00 +14°C° 0 mm 1 mps 764 mmHg 76%
04:00 +15°C° 0 mm 2 mps 764 mmHg 72%
05:00 +16°C° 0 mm 2 mps 764 mmHg 68%
06:00 +18°C° 0 mm 2 mps 764 mmHg 63%
07:00 +20°C° 0 mm 2 mps 764 mmHg 57%
08:00 +23°C° 0 mm 2 mps 763 mmHg 51%
09:00 +25°C° 0 mm 3 mps 763 mmHg 45%
10:00 +26°C° 0 mm 3 mps 763 mmHg 42%
11:00 +27°C° 0 mm 2 mps 762 mmHg 39%
12:00 +28°C° 0 mm 2 mps 762 mmHg 36%
13:00 +29°C° 0 mm 2 mps 761 mmHg 36%
14:00 +29°C° 0 mm 2 mps 761 mmHg 36%
15:00 +29°C° 0 mm 2 mps 761 mmHg 36%
16:00 +28°C° 0 mm 2 mps 760 mmHg 41%
17:00 +28°C° 0 mm 2 mps 760 mmHg 47%
18:00 +27°C° 0 mm 2 mps 760 mmHg 52%
19:00 +25°C° 0 mm 2 mps 760 mmHg 60%
20:00 +23°C° 0 mm 2 mps 761 mmHg 67%
21:00 +19°C° 0 mm 2 mps 761 mmHg 75%
22:00 +19°C° 0 mm 2 mps 761 mmHg 78%
23:00 +18°C° 0 mm 2 mps 761 mmHg 81%

Tomorrow, 15 June, Tuesday

Time Temperature Precipitation Wind Pressure Humidity
00:00 +17°C° 0 mm 2 mps 761 mmHg 84%
01:00 +17°C° 0 mm 2 mps 761 mmHg 86%
02:00 +16°C° 0 mm 2 mps 761 mmHg 89%
03:00 +16°C° 0 mm 2 mps 761 mmHg 91%
04:00 +16°C° 0 mm 2 mps 762 mmHg 87%
05:00 +17°C° 0 mm 2 mps 762 mmHg 84%
06:00 +18°C° 0 mm 2 mps 762 mmHg 81%
07:00 +19°C° 0 mm 3 mps 762 mmHg 75%
08:00 +20°C° 0 mm 3 mps 762 mmHg 70%
09:00 +21°C° 0 mm 3 mps 762 mmHg 64%
10:00 +22°C° 0 mm 3 mps 762 mmHg 61%
11:00 +22°C° 0 mm 3 mps 762 mmHg 58%
12:00 +24°C° 0 mm 3 mps 762 mmHg 56%
13:00 +24°C° 0 mm 3 mps 762 mmHg 54%
14:00 +25°C° 0 mm 3 mps 761 mmHg 53%
15:00 +25°C° 0 mm 3 mps 761 mmHg 52%
16:00 +25°C° 0 mm 3 mps 761 mmHg 55%
17:00 +24°C° 0 mm 3 mps 761 mmHg 58%
18:00 +22°C° 0 mm 3 mps 761 mmHg 61%
19:00 +21°C° 0 mm 3 mps 761 mmHg 66%
20:00 +19°C° 0 mm 2 mps 761 mmHg 71%
21:00 +18°C° 0 mm 2 mps 761 mmHg 75%
22:00 +18°C° 0 mm 2 mps 760 mmHg 78%
23:00 +17°C° 0 mm 2 mps 760 mmHg 81%

Day after tomorrow, 16 June, Wednesday

Time Temperature Precipitation Wind Pressure Humidity
00:00 +17°C° 0 mm 2 mps 760 mmHg 83%
01:00 +17°C° 0 mm 2 mps 760 mmHg 85%
02:00 +16°C° 0 mm 1 mps 760 mmHg 87%
03:00 +16°C° 0 mm 1 mps 759 mmHg 88%
04:00 +18°C° 0 mm 1 mps 759 mmHg 84%
05:00 +20°C° 0 mm 1 mps 759 mmHg 79%
06:00 +21°C° 0 mm 1 mps 759 mmHg 74%
07:00 +23°C° 0 mm 1 mps 758 mmHg 68%
08:00 +25°C° 0 mm 1 mps 758 mmHg 62%
09:00 +27°C° 0 mm 1 mps 758 mmHg 56%
10:00 +28°C° 0 mm 1 mps 758 mmHg 51%
11:00 +30°C° 0 mm 1 mps 757 mmHg 47%
12:00 +31°C° 0 mm 2 mps 757 mmHg 43%
13:00 +31°C° 0 mm 2 mps 757 mmHg 43%
14:00 +31°C° 0 mm 2 mps 756 mmHg 43%
15:00 +31°C° 0 mm 2 mps 756 mmHg 43%
16:00 +30°C° 0 mm 2 mps 756 mmHg 49%
17:00 +29°C° 0 mm 2 mps 756 mmHg 56%
18:00 +27°C° 0 mm 2 mps 756 mmHg 62%
19:00 +26°C° 0 mm 2 mps 756 mmHg 65%
20:00 +25°C° 0 mm 2 mps 756 mmHg 69%
21:00 +24°C° 0 mm 2 mps 756 mmHg 73%
22:00 +23°C° 0 mm 2 mps 756 mmHg 74%
23:00 +23°C° 0 mm 2 mps 756 mmHg 74%

17 June, Thursday

Time Temperature Precipitation Wind Pressure Humidity
00:00 +21°C° 0 mm 2 mps 756 mmHg 75%
01:00 +21°C° 0 mm 2 mps 756 mmHg 74%
02:00 +21°C° 0 mm 2 mps 756 mmHg 74%
03:00 +20°C° 0 mm 2 mps 755 mmHg 74%
04:00 +23°C° 0 mm 2 mps 755 mmHg 70%
05:00 +24°C° 0 mm 2 mps 755 mmHg 66%
06:00 +25°C° 0 mm 2 mps 755 mmHg 63%
07:00 +27°C° 0 mm 3 mps 755 mmHg 56%
08:00 +29°C° 0 mm 3 mps 755 mmHg 48%
09:00 +32°C° 0 mm 4 mps 755 mmHg 41%
10:00 +33°C° 0 mm 4 mps 755 mmHg 39%
11:00 +34°C° 0 mm 4 mps 754 mmHg 37%
12:00 +35°C° 0 mm 4 mps 754 mmHg 34%
13:00 +35°C° 0 mm 4 mps 754 mmHg 35%
14:00 +35°C° 0 mm 4 mps 754 mmHg 36%
15:00 +35°C° 0 mm 4 mps 753 mmHg 38%
16:00 +31°C° 1 mm 3 mps 753 mmHg 51%
17:00 +28°C° 1 mm 3 mps 753 mmHg 65%
18:00 +25°C° 1 mm 3 mps 754 mmHg 78%
19:00 +25°C° 1.5 mm 3 mps 754 mmHg 83%
20:00 +24°C° 1.5 mm 3 mps 754 mmHg 87%
21:00 +23°C° 1.5 mm 2 mps 755 mmHg 92%
22:00 +23°C° 0.2 mm 2 mps 755 mmHg 92%
23:00 +23°C° 0.2 mm 2 mps 755 mmHg 93%

18 June, Friday

Time Temperature Precipitation Wind Pressure Humidity
00:00 +22°C° 0.2 mm 1 mps 755 mmHg 94%
01:00 +22°C° 0 mm 1 mps 755 mmHg 95%
02:00 +22°C° 0 mm 1 mps 755 mmHg 96%
03:00 +20°C° 0 mm 2 mps 755 mmHg 97%
04:00 +21°C° 0 mm 2 mps 755 mmHg 94%
05:00 +21°C° 0 mm 2 mps 756 mmHg 92%
06:00 +23°C° 0 mm 2 mps 756 mmHg 89%
07:00 +24°C° 0 mm 2 mps 756 mmHg 83%
08:00 +24°C° 0 mm 2 mps 756 mmHg 78%
09:00 +25°C° 0 mm 2 mps 756 mmHg 72%
10:00 +26°C° 0 mm 2 mps 757 mmHg 69%
11:00 +27°C° 0 mm 2 mps 757 mmHg 66%
12:00 +27°C° 0 mm 2 mps 757 mmHg 63%
13:00 +26°C° 0.3 mm 2 mps 757 mmHg 70%
14:00 +25°C° 0.3 mm 2 mps 757 mmHg 77%
15:00 +24°C° 0.3 mm 1 mps 757 mmHg 84%
16:00 +24°C° 0.2 mm 1 mps 757 mmHg 84%
17:00 +24°C° 0.2 mm 2 mps 757 mmHg 83%
18:00 +24°C° 0.2 mm 2 mps 757 mmHg 83%
19:00 +23°C° 0.1 mm 2 mps 757 mmHg 87%
20:00 +21°C° 0.1 mm 2 mps 757 mmHg 90%
21:00 +20°C° 0.1 mm 2 mps 757 mmHg 94%
22:00 +21°C° 0 mm 1 mps 758 mmHg 95%
23:00 +20°C° 0 mm 1 mps 758 mmHg 95%

19 June, Saturday

Time Temperature Precipitation Wind Pressure Humidity
00:00 +20°C° 0 mm 1 mps 758 mmHg 96%
01:00 +20°C° 0.1 mm 1 mps 758 mmHg 97%
02:00 +20°C° 0.1 mm 1 mps 758 mmHg 97%
03:00 +20°C° 0.1 mm 1 mps 758 mmHg 97%
04:00 +21°C° 0 mm 1 mps 758 mmHg 95%
05:00 +22°C° 0 mm 1 mps 758 mmHg 92%
06:00 +23°C° 0 mm 1 mps 758 mmHg 89%
07:00 +25°C° 0 mm 1 mps 757 mmHg 80%
08:00 +27°C° 0 mm 2 mps 757 mmHg 71%
09:00 +28°C° 0 mm 2 mps 757 mmHg 62%
10:00 +30°C° 0.1 mm 2 mps 757 mmHg 56%
11:00 +31°C° 0.1 mm 2 mps 757 mmHg 51%
12:00 +33°C° 0.1 mm 3 mps 756 mmHg 46%
13:00 +33°C° 0 mm 3 mps 756 mmHg 46%
14:00 +33°C° 0 mm 3 mps 756 mmHg 47%
15:00 +33°C° 0 mm 3 mps 756 mmHg 48%
16:00 +31°C° 0 mm 2 mps 756 mmHg 52%
17:00 +30°C° 0 mm 2 mps 755 mmHg 57%
18:00 +29°C° 0 mm 2 mps 755 mmHg 61%
19:00 +28°C° 0 mm 2 mps 755 mmHg 65%
20:00 +27°C° 0 mm 2 mps 755 mmHg 68%
21:00 +26°C° 0 mm 2 mps 755 mmHg 72%
22:00 +26°C° 0 mm 2 mps 755 mmHg 71%
23:00 +25°C° 0 mm 2 mps 755 mmHg 71%
Show more

We Need Your Consent

Meteoprog and our Service Providers may store and access personal data such as cookies, device identifiers or other similar technologies on your device and process such data to personalise content and ads, as well as provide social media features and to analyse the traffic.

  • Store and/or access information on your device

    Cookies, device identifiers or other information can be stored or accessed on your device for the purposes indicated above.

  • Personalised ads and content, ad and content measurement, audience insights, and products development

    Ads and content can be personalised based on a profile. More data can be added to better personalise ads and content. Ad and content performance can be measured. Insights about the audience who saw the ads and content can be derived. Such data can be used to develop or improve user’s experience, systems and software.

By clicking ‘I Agree’ you will allow the use of indicated cookies, device identifiers, web beacons or other similar technologies. Your settings can be changed in the browser on your device.

For certain purposes, legitimate interests may be relied on, rather than consent. You can read more about this in our Privacy and Cookie Policy.